| time (UTC) | temp C | wind direction | speed KPH | gust KPH | rain 1hr cm | rain 24hr cm | rain mn cm | humidity % | barometer mb |
| 20260507190036 | 22 | 13 | 0.0 | 3.2 | 0.00 | 0.03 | 0.00 | 48 | 1017.0 |
| 20260507184536 | 22 | 205 | 0.0 | 3.2 | 0.00 | 0.03 | 0.00 | 48 | 1017.0 |
| 20260507183035 | 22 | 18 | 0.0 | 4.8 | 0.00 | 0.03 | 0.00 | 47 | 1017.0 |
| 20260507181523 | 21 | 351 | 0.0 | 3.2 | 0.00 | 0.03 | 0.00 | 50 | 1017.2 |
| 20260507180022 | 21 | 19 | 0.0 | 4.8 | 0.00 | 0.03 | 0.00 | 50 | 1017.3 |
| 20260507174515 | 21 | 23 | 0.0 | 3.2 | 0.00 | 0.03 | 0.00 | 51 | 1017.5 |
| 20260507173010 | 20 | 13 | 0.0 | 1.6 | 0.00 | 0.03 | 0.00 | 53 | 1017.8 |
| 20260507171506 | 20 | 351 | 0.0 | 3.2 | 0.00 | 0.03 | 0.00 | 52 | 1018.2 |
| 20260507170002 | 20 | 352 | 0.0 | 1.6 | 0.00 | 0.03 | 0.00 | 53 | 1018.6 |
| 20260507164629 | 20 | 27 | 0.0 | 0.0 | 0.00 | 0.03 | 0.00 | 55 | 1019.2 |
| 20260507163053 | 18 | 5 | 0.0 | 3.2 | 0.00 | 0.03 | 0.00 | 56 | 1019.2 |
| 20260507161549 | 18 | 342 | 0.0 | 1.6 | 0.00 | 0.03 | 0.00 | 56 | 1019.3 |
| 20260507160048 | 18 | 354 | 0.0 | 1.6 | 0.00 | 0.03 | 0.00 | 56 | 1019.2 |
| 20260507154540 | 17 | 13 | 0.0 | 1.6 | 0.00 | 0.03 | 0.00 | 54 | 1019.2 |
| 20260507153035 | 17 | 16 | 0.0 | 1.6 | 0.00 | 0.03 | 0.00 | 53 | 1019.4 |
| 20260507151532 | 17 | 16 | 0.0 | 1.6 | 0.00 | 0.03 | 0.00 | 51 | 1019.5 |
| 20260507150027 | 16 | 354 | 0.0 | 1.6 | 0.00 | 0.03 | 0.00 | 50 | 1019.7 |
| 20260507144523 | 16 | 352 | 0.0 | 1.6 | 0.00 | 0.03 | 0.00 | 41 | 1019.8 |
| 20260507143032 | 15 | 8 | 0.0 | 1.6 | 0.00 | 0.03 | 0.00 | 28 | 1019.9 |
| 20260507141513 | 15 | 9 | 0.0 | 0.0 | 0.00 | 0.03 | 0.00 | 14 | 1019.9 |
| 20260507140010 | 14 | 9 | 0.0 | 1.6 | 0.00 | 0.03 | 0.00 | 1 | 1019.9 |
| 20260507134505 | 13 | 11 | 0.0 | 1.6 | 0.00 | 0.03 | 0.00 | 1 | 1020.1 |
| 20260507133110 | 13 | 64 | 0.0 | 0.0 | 0.00 | 0.03 | 0.00 | 1 | 1020.4 |
| 20260507131612 | 12 | 63 | 0.0 | 0.0 | 0.00 | 0.03 | 0.00 | 1 | 1020.4 |
| 20260507130052 | 12 | 63 | 0.0 | 0.0 | 0.00 | 0.03 | 0.00 | 1 | 1020.3 |
| 20260507124548 | 12 | 63 | 0.0 | 0.0 | 0.00 | 0.03 | 0.00 | 1 | 1020.2 |
| 20260507123055 | 12 | 64 | 0.0 | 0.0 | 0.00 | 0.03 | 0.00 | 1 | 1019.9 |
| 20260507121543 | 11 | 63 | 0.0 | 0.0 | 0.00 | 0.03 | 0.00 | 1 | 1019.9 |
| 20260507120035 | 11 | 65 | 0.0 | 0.0 | 0.00 | 0.03 | 0.00 | 1 | 1019.5 |
| 20260507114531 | 11 | 13 | 0.0 | 0.0 | 0.00 | 0.03 | 0.00 | 1 | 1020.1 |
| 20260507113026 | 11 | 13 | 0.0 | 0.0 | 0.00 | 0.03 | 0.00 | 1 | 1019.6 |
| 20260507111522 | 11 | 13 | 0.0 | 0.0 | 0.00 | 0.03 | 0.00 | 1 | 1019.3 |
| 20260507110021 | 11 | 13 | 0.0 | 0.0 | 0.00 | 0.03 | 0.00 | 1 | 1019.3 |
| 20260507104513 | 11 | 13 | 0.0 | 0.0 | 0.00 | 0.03 | 0.00 | 1 | 1019.1 |
| 20260507103009 | 11 | 13 | 0.0 | 0.0 | 0.00 | 0.03 | 0.00 | 1 | 1018.7 |
| 20260507101506 | 11 | 13 | 0.0 | 0.0 | 0.00 | 0.03 | 0.00 | 1 | 1018.5 |
| 20260507094557 | 12 | 13 | 0.0 | 0.0 | 0.00 | 0.03 | 0.00 | 8 | 1017.9 |
| 20260507093051 | 12 | 13 | 0.0 | 0.0 | 0.00 | 0.03 | 0.00 | 6 | 1017.8 |
| 20260507091547 | 12 | 13 | 0.0 | 0.0 | 0.00 | 0.03 | 0.00 | 12 | 1017.7 |
| 20260507090056 | 13 | 13 | 0.0 | 0.0 | 0.00 | 0.03 | 0.00 | 16 | 1017.4 |
| 20260507084551 | 13 | 13 | 0.0 | 1.6 | 0.00 | 0.03 | 0.00 | 15 | 1017.2 |
| 20260507083043 | 13 | 13 | 0.0 | 0.0 | 0.00 | 0.03 | 0.00 | 16 | 1017.3 |
| 20260507081551 | 13 | 13 | 0.0 | 0.0 | 0.00 | 0.03 | 0.00 | 16 | 1017.5 |
| 20260507080039 | 13 | 13 | 0.0 | 1.6 | 0.00 | 0.03 | 0.00 | 17 | 1017.4 |
| 20260507074538 | 13 | 13 | 0.0 | 1.6 | 0.00 | 0.03 | 0.00 | 20 | 1017.2 |
| 20260507073034 | 13 | 15 | 0.0 | 0.0 | 0.00 | 0.03 | 0.00 | 26 | 1017.1 |
| 20260507071535 | 14 | 15 | 0.0 | 1.6 | 0.00 | 0.03 | 0.00 | 31 | 1016.5 |
| 20260507070034 | 14 | 15 | 0.0 | 1.6 | 0.00 | 0.03 | 0.00 | 32 | 1016.6 |
| 20260507064552 | 14 | 22 | 0.0 | 0.0 | 0.00 | 0.03 | 0.00 | 29 | 1016.6 |
| 20260507063133 | 14 | 148 | 0.0 | 1.6 | 0.00 | 0.03 | 0.00 | 30 | 1016.7 |
| 20260507061529 | 14 | 150 | 0.0 | 1.6 | 0.00 | 0.03 | 0.00 | 30 | 1016.6 |
| 20260507060028 | 15 | 6 | 0.0 | 1.6 | 0.00 | 0.03 | 0.00 | 36 | 1016.5 |
| 20260507054521 | 15 | 5 | 0.0 | 1.6 | 0.00 | 0.03 | 0.00 | 42 | 1016.5 |
| 20260507053020 | 15 | 21 | 0.0 | 1.6 | 0.00 | 0.03 | 0.00 | 46 | 1016.5 |
| 20260507051517 | 15 | 11 | 0.0 | 1.6 | 0.00 | 0.03 | 0.00 | 47 | 1016.6 |
| 20260507050032 | 15 | 12 | 0.0 | 1.6 | 0.00 | 0.03 | 0.00 | 46 | 1016.5 |
| 20260507044515 | 15 | 9 | 0.0 | 1.6 | 0.00 | 0.03 | 0.03 | 47 | 1016.5 |
| 20260507043013 | 15 | 49 | 0.0 | 1.6 | 0.00 | 0.03 | 0.03 | 47 | 1016.6 |
| 20260507041522 | 15 | 23 | 0.0 | 0.0 | 0.00 | 0.03 | 0.03 | 48 | 1016.7 |
| 20260507040011 | 15 | 11 | 0.0 | 1.6 | 0.00 | 0.03 | 0.03 | 45 | 1016.8 |
| 20260507034506 | 15 | 15 | 0.0 | 1.6 | 0.00 | 0.03 | 0.03 | 44 | 1016.8 |
| 20260507033002 | 15 | 11 | 0.0 | 0.0 | 0.00 | 0.03 | 0.03 | 25 | 1016.7 |
| 20260507031558 | 15 | 1 | 0.0 | 1.6 | 0.00 | 0.03 | 0.03 | 25 | 1016.6 |
| 20260507030054 | 15 | 356 | 0.0 | 1.6 | 0.00 | 0.03 | 0.03 | 20 | 1016.5 |
| 20260507024548 | 15 | 306 | 0.0 | 1.6 | 0.00 | 0.03 | 0.03 | 13 | 1016.3 |
| 20260507023045 | 15 | 297 | 0.0 | 1.6 | 0.00 | 0.03 | 0.03 | 11 | 1015.9 |
| 20260507021543 | 15 | 22 | 0.0 | 1.6 | 0.00 | 0.03 | 0.03 | 6 | 1015.6 |
| 20260507020036 | 15 | 45 | 0.0 | 1.6 | 0.00 | 0.03 | 0.03 | 1 | 1015.2 |
| 20260507014530 | 15 | 20 | 0.0 | 1.6 | 0.00 | 0.03 | 0.03 | 1 | 1014.8 |
| 20260507013025 | 15 | 1 | 0.0 | 1.6 | 0.00 | 0.03 | 0.03 | 1 | 1014.5 |
| 20260507011523 | 15 | 203 | 0.0 | 1.6 | 0.00 | 0.03 | 0.03 | 1 | 1014.2 |
| 20260507010021 | 15 | 203 | 0.0 | 1.6 | 0.00 | 0.03 | 0.03 | 1 | 1014.1 |
| 20260507004517 | 16 | 205 | 0.0 | 0.0 | 0.00 | 0.03 | 0.03 | 1 | 1013.8 |
| 20260507003009 | 16 | 204 | 0.0 | 0.0 | 0.00 | 0.03 | 0.03 | 1 | 1013.7 |
| 20260507001508 | 16 | 348 | 0.0 | 0.0 | 0.00 | 0.03 | 0.03 | 1 | 1013.7 |
| 20260507000100 | 16 | 8 | 0.0 | 0.0 | 0.00 | 0.03 | 0.03 | 1 | 1013.4 |
| 20260506234559 | 16 | 8 | 0.0 | 0.0 | 0.00 | 0.03 | 0.03 | 1 | 1013.3 |
| 20260506233050 | 15 | 8 | 0.0 | 0.0 | 0.03 | 0.03 | 0.03 | 1 | 1013.1 |
| 20260506231604 | 15 | 7 | 0.0 | 0.0 | 0.03 | 0.03 | 0.03 | 1 | 1013.2 |
| 20260506224540 | 16 | 5 | 0.0 | 1.6 | 0.03 | 0.03 | 0.03 | 31 | 1013.0 |
| 20260506223032 | 16 | 4 | 0.0 | 1.6 | 0.00 | 0.00 | 0.00 | 53 | 1012.9 |
| 20260506221528 | 16 | 68 | 0.0 | 1.6 | 0.00 | 0.00 | 0.00 | 52 | 1012.7 |
| 20260506220033 | 16 | 335 | 0.0 | 1.6 | 0.00 | 0.00 | 0.00 | 53 | 1012.7 |
| 20260506214520 | 16 | 1 | 0.0 | 1.6 | 0.00 | 0.00 | 0.00 | 53 | 1012.8 |
| 20260506213015 | 16 | 6 | 0.0 | 1.6 | 0.00 | 0.00 | 0.00 | 52 | 1012.7 |
| 20260506211511 | 16 | 359 | 0.0 | 1.6 | 0.00 | 0.00 | 0.00 | 52 | 1012.7 |
| 20260506210007 | 16 | 19 | 0.0 | 1.6 | 0.00 | 0.00 | 0.00 | 52 | 1012.9 |
| 20260506204502 | 16 | 15 | 0.0 | 1.6 | 0.00 | 0.00 | 0.00 | 53 | 1013.1 |
| 20260506203058 | 16 | 19 | 0.0 | 1.6 | 0.00 | 0.00 | 0.00 | 50 | 1013.1 |
| 20260506201554 | 16 | 347 | 0.0 | 1.6 | 0.00 | 0.00 | 0.00 | 49 | 1013.4 |
| 20260506200049 | 15 | 358 | 0.0 | 1.6 | 0.00 | 0.00 | 0.00 | 42 | 1013.6 |
| 20260506194545 | 15 | 314 | 0.0 | 1.6 | 0.00 | 0.00 | 0.00 | 36 | 1013.8 |
| 20260506193040 | 14 | 4 | 0.0 | 1.6 | 0.00 | 0.00 | 0.00 | 28 | 1014.0 |
| 20260506191539 | 14 | 1 | 0.0 | 1.6 | 0.00 | 0.00 | 0.00 | 26 | 1014.2 |